Temperature
4 5 5 5 5 5 5 4 4 5 4 5 5 5 5 5 5 5 5 4 4 4 3 3 3 3 2 2 2 2 3 3 3 3 3 3 3 3 3 3 3 3 3 3
4 5 5 5 5 5 5 5 5 5 5 6 5 5 5 5 5 4 5 4 4 4 3 3 3 3 2 2 2 2 2 2 2 2 2 2 2 2 2 2 2 2 2 2
4 4 5 5 5 5 5 5 5 5 5 5 4 5 5 5 5 5 5 4 4 4 4 3 3 3 2 2 2 2 2 2 2 2 2 2 2 2 2 2 2 2 2 2
3 4 5 6 6 6 5 5 5 5 5 4 5 5 6 6 5 5 5 5 4 4 4 3 3 3 2 2 2 2 2 2 2 2 2 2 2 1 1 1 1 1 1 1
3 3 4 6 6 5 5 5 5 4 4 5 5 5 5 6 5 5 5 5 4 4 4 3 3 3 2 2 2 2 2 2 1 1 1 1 1 1 1 1 1 1 1 1
3 4 5 7 6 6 6 5 5 5 4 4 4 3 4 6 5 5 5 5 4 4 4 3 3 2 2 2 2 2 2 1 1 1 1 1 1 1 1 0 0 0 0 -0
2 3 4 5 6 6 6 6 6 6 5 5 3 4 6 5 5 5 5 4 4 4 4 3 3 2 2 2 2 2 1 1 1 1 1 0 0 0 -0 -0 -0 -0 -0 -1
2 3 4 5 4 5 5 6 7 6 6 5 5 6 5 5 5 5 4 4 4 4 3 3 3 2 2 2 2 1 1 1 1 1 0 0 -0 -0 -0 -1 -1 -1 -1 -1
3 4 5 6 6 7 7 6 6 6 6 5 5 5 5 5 5 4 4 4 4 3 3 3 2 2 2 2 1 1 1 1 1 0 0 -0 -0 -0 -1 -1 -1 -1 -1 -1
2 3 4 5 6 7 7 6 6 6 6 5 5 5 5 5 4 4 4 4 3 3 3 3 2 2 2 1 1 1 1 1 1 0 0 -0 -1 -1 -1 -1 -2 -2 -2 -2
2 3 4 5 6 7 7 6 6 5 5 5 5 4 4 4 4 4 4 3 3 3 3 2 2 2 1 1 1 1 1 0 0 -0 -0 -0 -1 -1 -1 -2 -2 -3 -3 -3
4 5 3 6 7 6 6 6 5 5 5 5 5 4 4 4 4 4 3 3 3 3 2 2 2 2 1 1 1 1 0 0 -0 -1 -1 -1 -1 -1 -2 -2 -2 -3 -3 -3
6 6 6 6 6 5 5 5 5 5 5 5 4 4 4 4 4 3 3 3 3 2 2 2 2 1 1 1 1 0 0 -0 -1 -1 -1 -1 -2 -2 -2 -2 -2 -3 -3 -3
5 5 5 5 5 5 5 5 5 4 4 4 4 4 4 3 3 3 3 3 2 2 2 1 1 1 1 0 0 0 -0 -1 -1 -1 -2 -2 -2 -2 -2 -3 -3 -3 -3 -3
4 5 5 5 5 4 4 4 4 4 4 4 4 3 3 3 3 3 2 2 2 2 1 1 1 1 0 -0 -0 -0 -1 -1 -1 -2 -2 -2 -2 -3 -3 -3 -3 -3 -3 -3
4 4 4 4 4 4 4 4 4 4 4 3 3 3 3 3 2 2 2 2 1 1 1 1 1 0 -0 -0 -1 -1 -1 -2 -2 -2 -2 -2 -3 -3 -3 -3 -4 -4 -4 -4
3 3 3 3 4 4 4 3 3 3 3 3 3 3 2 2 2 2 2 1 1 1 1 0 0 -0 -0 -1 -1 -1 -2 -2 -2 -3 -3 -3 -3 -3 -3 -4 -4 -4 -4 -4
3 3 3 3 3 3 3 3 3 3 3 3 2 2 2 2 1 1 1 1 0 0 0 -0 -0 -1 -1 -1 -1 -2 -2 -2 -3 -3 -3 -3 -4 -4 -4 -4 -4 -4 -4 -5
3 3 3 3 3 3 3 3 3 2 2 2 2 2 1 1 1 1 0 0 -0 -0 -0 -1 -1 -1 -1 -2 -2 -2 -3 -3 -3 -3 -4 -4 -4 -4 -4 -4 -5 -5 -5 -5
4 4 3 3 3 3 3 3 2 2 2 2 1 1 1 1 1 0 -0 -0 -0 -0 -1 -1 -2 -2 -2 -2 -2 -3 -3 -3 -3 -4 -4 -4 -5 -5 -5 -5 -5 -5 -5 -6
4 4 3 3 3 3 3 2 2 2 2 1 1 1 1 1 0 -0 -0 -0 -0 -1 -1 -2 -2 -2 -2 -3 -3 -3 -3 -3 -4 -4 -4 -5 -5 -5 -5 -5 -5 -6 -6 -6
4 4 3 3 3 3 2 2 2 2 1 1 1 1 0 0 -0 -0 -1 -1 -1 -1 -2 -2 -2 -2 -3 -3 -3 -3 -4 -4 -4 -4 -5 -5 -5 -5 -5 -6 -6 -6 -6 -6
4 4 3 3 2 2 2 2 2 1 1 1 1 0 0 -0 -0 -1 -1 -1 -2 -2 -2 -2 -3 -3 -3 -3 -4 -4 -4 -4 -5 -5 -5 -5 -6 -6 -6 -6 -6 -6 -6 -7
3 3 3 2 2 2 2 2 1 1 1 1 0 0 -0 -1 -1 -1 -1 -2 -2 -2 -3 -3 -3 -3 -4 -4 -4 -4 -4 -5 -5 -5 -5 -5 -6 -6 -6 -6 -6 -6 -7 -7
3 3 2 2 2 1 1 1 1 0 0 0 -0 -0 -1 -1 -1 -1 -2 -2 -2 -3 -3 -3 -3 -4 -4 -4 -4 -4 -5 -5 -5 -6 -6 -6 -6 -6 -6 -6 -6 -7 -7 -7
2 2 2 2 1 1 1 0 0 0 -0 -0 -0 -0 -1 -1 -2 -2 -2 -2 -3 -3 -3 -3 -4 -4 -4 -4 -5 -5 -5 -5 -6 -6 -6 -6 -6 -6 -6 -6 -7 -7 -7 -7
2 1 1 1 1 1 0 0 -0 -0 -0 -1 -1 -1 -1 -2 -2 -2 -3 -3 -3 -3 -4 -4 -4 -4 -4 -5 -5 -5 -5 -6 -6 -6 -6 -6 -7 -7 -7 -7 -7 -7 -7 -7
Wind_Speed
7 7 5 7 8 8 9 9 8 8 8 10 7 7 6 5 4 4 4 4 4 4 3 3 3 4 4 4 5 5 5 5 5 4 4 4 4 4 3 3 3 3 3 2
5 5 5 7 10 10 10 9 11 10 11 9 6 5 5 6 5 5 6 5 5 4 4 3 3 3 3 4 4 4 4 5 5 5 5 4 4 4 4 4 4 4 4 3
4 5 4 7 8 8 6 6 8 11 9 5 5 6 7 7 7 7 7 6 6 5 5 4 3 3 2 3 3 4 4 5 5 5 5 5 4 4 4 4 3 4 4 3
3 4 4 6 2 5 6 6 8 7 7 6 8 8 6 6 6 6 6 6 6 5 5 3 2 2 2 2 2 3 3 4 5 5 5 5 4 4 4 3 3 3 4 4
1 3 7 7 3 4 5 6 6 8 8 6 3 2 4 5 5 7 7 6 6 5 4 3 3 2 1 2 2 2 3 4 4 4 4 5 5 4 3 3 3 4 4 4
2 3 6 6 1 2 3 5 5 5 6 4 2 2 5 4 4 5 5 5 5 4 3 3 3 2 1 2 2 3 4 4 4 3 4 4 4 4 4 3 3 4 4 4
6 6 9 6 2 4 3 6 3 4 5 5 6 7 5 3 4 4 4 4 4 4 4 5 4 3 3 3 4 5 4 3 3 3 3 3 4 4 4 4 4 4 4 4
6 6 9 5 6 6 8 3 3 4 5 6 7 6 4 4 4 4 4 4 4 4 4 4 4 4 4 5 5 4 3 3 3 3 3 2 3 3 3 3 3 4 4 4
10 10 5 5 7 6 4 4 5 5 5 6 6 5 5 5 5 4 4 4 4 4 4 4 4 5 5 6 4 3 2 3 3 3 2 2 2 3 3 3 3 3 3 4
7 10 9 7 7 6 5 6 6 6 5 5 6 6 6 5 5 4 4 4 4 4 4 5 5 5 6 5 3 3 3 3 3 2 2 3 2 2 2 2 3 3 4 4
8 9 6 7 9 9 8 6 6 6 5 6 6 6 6 5 5 5 4 4 4 4 5 6 5 5 5 4 3 4 4 4 3 3 3 3 3 3 3 3 4 4 3 3
11 9 7 7 6 6 6 7 7 6 5 5 6 7 6 6 5 5 5 4 4 5 5 5 4 5 4 4 4 4 4 4 3 3 3 3 3 4 5 5 7 7 6 6
12 9 8 8 6 6 6 7 7 7 7 6 6 6 6 5 5 4 4 5 5 6 5 5 4 5 4 4 4 5 5 4 3 3 3 3 3 3 5 6 6 7 7 8
10 7 8 9 8 7 7 7 6 5 6 6 5 5 4 4 4 4 5 6 5 5 4 4 4 5 4 4 4 5 5 5 5 4 4 4 4 4 4 4 5 5 6 8
10 10 10 8 6 6 5 4 4 5 5 5 4 4 5 5 5 6 5 4 3 4 4 4 5 6 4 3 4 5 5 4 4 4 4 4 4 4 4 5 5 5 5 5
6 6 7 8 8 7 6 6 6 7 6 5 5 6 6 5 5 5 4 3 3 5 5 5 6 5 4 4 4 4 5 7 5 4 4 4 4 4 4 5 5 5 5 5
7 8 7 8 9 8 7 7 8 7 6 6 7 6 5 4 4 5 5 5 5 6 6 6 6 5 4 4 4 4 4 5 6 5 4 4 4 5 5 5 5 5 5 6
10 10 9 8 8 8 8 7 7 7 6 6 5 5 5 5 6 6 6 4 4 5 6 6 5 4 4 4 4 4 4 4 4 5 4 5 5 5 5 5 6 6 5 6
7 8 8 8 7 7 6 6 6 6 6 5 5 6 7 7 7 6 4 4 5 7 7 6 7 5 5 6 5 4 4 4 4 5 5 7 6 5 5 5 6 5 5 5
5 5 5 6 5 5 6 5 5 5 5 5 5 6 6 7 6 5 5 6 7 6 5 5 5 5 5 6 6 4 4 5 5 5 5 5 5 5 5 6 6 5 5 5
5 5 5 5 5 5 6 5 5 6 5 5 6 7 7 6 5 5 5 7 7 5 5 7 5 5 5 5 6 4 4 5 5 5 5 5 6 6 6 6 6 6 5 5
5 5 5 5 5 5 5 4 5 5 5 5 6 6 5 6 5 5 7 7 6 6 4 4 4 6 7 6 4 4 5 5 5 5 5 6 6 6 6 6 6 6 5 5
5 5 5 5 5 5 4 4 5 5 6 6 6 6 7 6 5 5 7 5 5 7 5 5 7 9 9 5 4 5 5 5 5 5 6 6 6 6 6 6 6 5 5 5
5 5 5 4 3 4 5 6 5 5 5 6 6 6 6 5 5 6 6 6 6 7 5 7 9 9 8 3 4 5 5 5 5 5 6 5 5 6 6 5 5 5 5 5
6 5 5 5 5 6 7 5 4 4 5 5 6 6 5 5 5 5 4 5 7 7 4 6 8 8 5 3 4 5 5 5 6 5 5 5 5 5 5 5 5 5 5 5
6 6 6 7 6 5 4 4 4 4 4 5 5 4 4 4 4 4 4 4 6 6 4 4 4 5 4 4 5 5 5 6 6 6 6 5 5 5 5 5 5 5 5 5
5 5 5 5 5 6 5 5 6 6 6 6 6 4 4 3 3 4 4 4 4 4 3 3 3 4 4 4 4 5 4 4 5 5 5 4 4 4 4 5 4 4 4 4
Wind_Direction
254 258 244 242 240 217 211 212 220 244 247 258 252 251 249 246 245 237 244 245 246 258 273 291 308 319 327 333 339 345 355 359 355 350 352 357 355 351 354 357 353 354 358 352
285 266 252 257 249 230 228 228 237 258 271 262 251 242 238 238 234 238 246 244 243 250 257 270 285 302 317 330 337 349 357 354 351 355 355 357 357 360 6 3 359 6 1 349
284 308 323 273 243 208 205 212 208 233 247 262 260 253 240 231 230 235 244 242 238 240 243 251 260 272 293 308 329 348 353 352 351 353 353 351 358 9 4 355 358 355 347 346
289 346 259 246 229 186 201 233 218 231 249 242 243 253 240 222 222 238 241 239 239 235 238 245 249 269 285 309 326 336 342 345 346 349 349 352 2 1 350 346 350 346 342 341
240 279 279 288 252 183 195 259 226 230 251 257 270 304 278 237 223 227 229 230 231 226 221 223 233 243 268 307 318 328 329 328 332 340 344 350 354 349 346 352 357 353 348 348
199 238 251 254 226 149 119 276 241 212 235 233 148 245 261 250 242 235 231 223 221 219 207 213 228 211 220 274 299 299 300 306 316 332 339 340 338 340 344 352 352 350 350 344
214 237 264 253 203 125 178 252 235 207 221 201 202 224 251 261 246 234 227 222 211 206 211 220 216 199 224 255 270 278 286 299 311 322 328 330 336 337 339 345 347 347 343 338
190 215 253 217 149 186 221 244 217 220 223 222 234 250 255 249 248 245 238 226 212 212 230 228 207 201 232 252 262 273 277 284 299 309 315 328 334 333 333 337 340 335 333 331
199 219 242 195 200 218 203 220 230 227 236 229 239 248 249 248 249 247 239 233 221 219 236 241 218 206 229 252 256 256 260 266 280 301 314 314 313 319 326 328 323 316 317 322
246 256 250 239 238 247 234 232 239 236 237 224 232 245 249 250 251 250 245 236 225 221 238 252 242 229 232 245 240 236 250 262 265 274 295 305 299 294 300 298 300 307 312 315
250 264 273 256 238 241 246 244 245 245 231 224 227 242 240 243 248 247 245 239 223 225 237 248 250 247 244 239 223 234 249 260 266 263 269 285 294 282 278 269 274 283 284 292
237 228 214 240 231 221 227 239 238 236 242 238 223 235 241 243 242 242 241 234 233 235 240 247 245 251 250 235 219 225 244 254 259 268 270 272 288 305 297 291 296 293 290 290
239 245 236 250 248 235 233 240 235 227 229 238 236 228 232 240 240 239 238 234 232 235 240 243 245 251 251 239 226 226 237 245 249 253 260 264 272 283 302 311 306 300 296 296
236 242 255 249 245 243 239 242 241 240 238 234 233 231 230 236 242 243 245 243 237 237 241 241 246 255 255 241 234 237 241 244 244 243 249 254 257 262 268 285 301 302 297 294
235 230 239 249 251 248 237 231 234 243 244 244 234 232 230 232 242 248 251 246 239 242 248 245 250 259 253 238 239 242 242 245 245 246 250 255 260 261 263 269 278 289 298 299
237 239 241 244 248 248 238 230 233 243 241 240 238 238 234 233 241 250 249 231 231 248 253 249 252 256 245 236 242 247 246 251 250 249 251 257 259 261 265 269 272 278 282 286
234 245 238 242 243 243 237 234 234 237 238 236 238 236 232 233 245 252 253 243 237 246 248 245 250 253 242 234 235 246 249 252 251 251 249 253 257 257 261 265 268 272 275 279
228 235 233 233 239 241 242 236 233 233 234 237 233 224 223 228 241 251 255 255 257 263 257 247 244 249 246 241 238 242 247 251 248 248 250 254 259 258 260 262 265 269 279 282
233 235 237 235 232 229 234 235 235 237 238 231 224 229 232 235 241 248 248 248 251 261 260 248 250 244 244 245 246 239 243 249 252 251 251 259 264 260 259 261 264 267 273 277
234 233 235 239 234 228 234 236 233 237 236 225 228 237 244 247 242 242 241 245 245 247 250 252 250 247 245 244 244 238 238 243 248 252 252 253 256 260 261 264 266 268 270 270
238 237 238 241 245 242 236 231 227 235 235 222 225 236 244 249 240 233 242 259 259 244 246 251 245 246 245 247 244 240 239 242 245 248 250 252 256 259 261 264 267 268 268 271
235 235 241 242 244 255 250 232 224 231 234 234 237 241 247 252 248 245 242 248 258 251 248 245 245 249 252 252 235 236 241 245 247 247 248 249 252 256 258 261 263 266 267 267
234 234 238 239 239 250 258 241 228 225 231 235 237 239 241 246 242 244 262 251 246 251 247 243 249 255 257 246 233 235 239 243 247 247 248 248 250 252 255 257 259 261 263 265
238 239 239 237 226 237 252 253 242 235 235 242 242 240 239 250 256 243 247 260 253 253 248 251 255 257 256 240 236 237 240 243 248 251 249 249 249 251 252 254 256 258 260 263
238 238 237 230 231 238 244 251 252 246 243 251 254 249 241 235 244 258 252 250 255 256 253 254 257 259 252 243 240 242 243 246 251 253 250 250 250 250 251 251 252 255 259 260
233 235 235 231 232 238 234 228 238 245 242 253 261 252 246 243 243 249 252 252 251 254 251 249 253 253 244 241 244 246 247 254 259 255 251 249 247 247 248 250 253 255 258 259
237 238 240 247 245 235 230 227 233 241 237 238 254 251 240 238 238 241 244 248 248 250 250 247 244 245 247 248 250 249 247 247 249 251 250 246 243 244 247 249 254 256 257 259
Height
1506 1503 1503 1501 1500 1500 1502 1501 1502 1493 1489 1480 1479 1479 1477 1476 1476 1475 1474 1473 1472 1470 1468 1465 1463 1460 1457 1454 1451 1448 1445 1442 1440 1438 1436 1434 1432 1431 1429 1428 1427 1425 1423 1422
1504 1498 1499 1497 1493 1493 1493 1492 1491 1488 1483 1474 1475 1475 1474 1474 1473 1472 1471 1470 1470 1468 1466 1464 1461 1459 1456 1453 1450 1447 1444 1441 1439 1437 1435 1433 1431 1429 1428 1426 1425 1423 1421 1420
1508 1501 1497 1493 1484 1485 1486 1483 1484 1484 1477 1472 1473 1471 1470 1470 1470 1470 1469 1468 1467 1466 1464 1462 1460 1457 1455 1452 1449 1446 1444 1441 1438 1436 1434 1431 1429 1428 1426 1425 1423 1421 1420 1418
1509 1504 1497 1482 1476 1477 1479 1477 1476 1474 1471 1470 1469 1467 1467 1467 1467 1466 1466 1465 1464 1463 1462 1460 1458 1456 1454 1451 1449 1446 1443 1440 1438 1435 1433 1431 1428 1427 1425 1423 1421 1419 1418 1416
1510 1506 1494 1479 1474 1475 1477 1475 1470 1470 1468 1467 1467 1466 1465 1464 1464 1463 1463 1462 1462 1461 1460 1458 1457 1454 1452 1450 1447 1445 1442 1440 1437 1435 1433 1430 1428 1426 1424 1422 1420 1418 1416 1415
1508 1504 1494 1475 1472 1471 1474 1474 1466 1465 1465 1465 1466 1468 1463 1460 1460 1460 1460 1459 1459 1458 1457 1456 1454 1452 1450 1448 1446 1444 1441 1439 1437 1435 1432 1430 1427 1425 1423 1421 1419 1417 1415 1414
1506 1502 1486 1472 1470 1472 1478 1470 1463 1462 1462 1462 1462 1462 1459 1458 1457 1457 1457 1456 1456 1455 1454 1453 1452 1450 1448 1446 1444 1442 1440 1438 1436 1434 1432 1429 1427 1425 1422 1420 1418 1416 1414 1412
1501 1500 1485 1466 1468 1470 1466 1461 1460 1459 1459 1459 1458 1457 1456 1455 1454 1454 1453 1453 1452 1451 1451 1450 1449 1447 1446 1444 1442 1440 1439 1437 1435 1433 1431 1429 1427 1424 1422 1420 1417 1415 1412 1410
1483 1475 1464 1462 1460 1459 1459 1458 1457 1457 1456 1456 1455 1454 1453 1452 1451 1451 1450 1449 1449 1448 1447 1447 1446 1444 1443 1442 1440 1438 1436 1434 1433 1431 1429 1427 1425 1423 1421 1418 1416 1413 1411 1409
1474 1463 1459 1458 1457 1456 1456 1455 1454 1453 1453 1452 1451 1450 1449 1449 1448 1447 1446 1446 1445 1444 1443 1443 1442 1441 1440 1439 1437 1435 1434 1432 1430 1428 1427 1425 1423 1421 1419 1417 1414 1412 1410 1407
1467 1458 1455 1452 1451 1451 1451 1451 1450 1449 1449 1448 1447 1446 1445 1444 1444 1443 1442 1442 1441 1440 1439 1439 1438 1437 1437 1435 1434 1432 1430 1429 1427 1425 1424 1422 1420 1419 1417 1415 1413 1411 1409 1406
1455 1449 1450 1447 1447 1447 1447 1446 1446 1445 1444 1444 1443 1442 1441 1440 1440 1439 1438 1437 1437 1436 1435 1435 1434 1433 1432 1431 1430 1428 1426 1425 1424 1422 1420 1419 1417 1415 1414 1412 1410 1408 1406 1405
1444 1443 1443 1441 1442 1442 1442 1441 1441 1440 1440 1439 1439 1438 1437 1436 1435 1435 1434 1433 1432 1431 1431 1430 1429 1429 1428 1427 1425 1424 1422 1421 1420 1418 1417 1415 1414 1412 1410 1408 1407 1405 1403 1401
1439 1440 1438 1436 1436 1436 1436 1436 1436 1435 1435 1435 1434 1433 1432 1432 1431 1430 1429 1429 1428 1427 1426 1425 1424 1424 1423 1422 1421 1419 1418 1417 1415 1414 1413 1411 1410 1408 1406 1404 1402 1400 1399 1397
1432 1433 1432 1431 1431 1431 1431 1431 1430 1430 1430 1429 1429 1428 1428 1427 1426 1426 1425 1425 1424 1423 1422 1421 1420 1419 1418 1417 1416 1414 1413 1412 1411 1410 1408 1407 1406 1404 1402 1400 1398 1396 1394 1393
1426 1426 1426 1426 1425 1425 1425 1425 1425 1424 1424 1424 1424 1424 1423 1423 1422 1422 1421 1420 1419 1418 1417 1416 1415 1414 1413 1412 1411 1409 1408 1407 1406 1405 1404 1402 1401 1400 1398 1396 1394 1392 1390 1389
1421 1419 1419 1419 1419 1419 1419 1420 1419 1419 1419 1419 1419 1419 1418 1418 1417 1417 1416 1416 1415 1413 1412 1411 1410 1410 1408 1407 1406 1404 1403 1402 1401 1400 1399 1397 1396 1395 1393 1391 1390 1388 1386 1385
1414 1414 1414 1414 1414 1414 1414 1414 1414 1414 1414 1414 1414 1414 1413 1413 1412 1412 1411 1411 1409 1408 1407 1406 1405 1404 1403 1402 1401 1399 1398 1397 1396 1395 1394 1392 1391 1390 1388 1387 1385 1383 1381 1380
1408 1409 1409 1409 1409 1409 1409 1409 1409 1409 1409 1409 1409 1409 1408 1408 1407 1407 1406 1405 1403 1402 1402 1401 1400 1399 1397 1396 1395 1394 1393 1392 1390 1389 1388 1387 1386 1385 1383 1382 1380 1378 1377 1375
1405 1405 1404 1404 1404 1404 1404 1404 1404 1404 1405 1404 1404 1403 1403 1402 1402 1401 1400 1399 1398 1397 1396 1395 1394 1393 1392 1391 1390 1388 1387 1386 1385 1384 1383 1382 1381 1379 1378 1377 1375 1373 1372 1370
1402 1401 1401 1401 1401 1400 1400 1400 1400 1400 1400 1399 1399 1398 1398 1397 1397 1396 1394 1393 1392 1392 1390 1389 1388 1387 1386 1385 1384 1383 1382 1381 1380 1379 1378 1376 1375 1374 1373 1372 1370 1368 1367 1365
1399 1398 1398 1398 1397 1396 1396 1396 1395 1395 1395 1394 1394 1394 1393 1392 1391 1390 1389 1388 1387 1386 1384 1383 1382 1381 1380 1379 1378 1377 1376 1375 1374 1373 1372 1371 1370 1369 1367 1366 1365 1363 1362 1361
1396 1395 1395 1394 1393 1392 1392 1391 1391 1390 1390 1389 1389 1388 1387 1386 1385 1384 1382 1382 1381 1380 1378 1377 1377 1376 1375 1373 1372 1371 1371 1370 1369 1368 1367 1366 1365 1363 1362 1361 1360 1359 1357 1356
1392 1391 1391 1390 1389 1388 1387 1387 1386 1386 1385 1384 1384 1383 1382 1380 1379 1378 1377 1376 1375 1374 1372 1372 1371 1370 1369 1367 1367 1366 1365 1364 1363 1362 1361 1360 1359 1358 1357 1356 1355 1354 1353 1352
1388 1387 1386 1385 1384 1383 1383 1382 1381 1381 1380 1379 1378 1377 1376 1375 1374 1372 1371 1370 1369 1368 1367 1366 1365 1364 1363 1362 1361 1360 1359 1358 1357 1356 1355 1354 1354 1353 1352 1351 1350 1349 1348 1347
1382 1382 1381 1380 1379 1378 1378 1377 1376 1375 1374 1373 1372 1371 1371 1369 1368 1367 1366 1364 1363 1362 1361 1361 1360 1359 1358 1357 1356 1355 1354 1353 1352 1351 1350 1349 1348 1348 1347 1346 1346 1345 1344 1343
1376 1375 1374 1373 1373 1372 1372 1371 1370 1369 1368 1367 1366 1365 1365 1364 1363 1361 1360 1359 1358 1357 1356 1355 1355 1354 1353 1352 1351 1350 1348 1347 1346 1346 1345 1344 1344 1343 1343 1342 1341 1341 1340 1339